This is the latest recevied weather packets stored in our database for station/object DB0LHR-6. If no packets are shown the sender has not sent any weather packets the latest 1 day(s).
| Time | Temp. | Humidity | Pressure | Rain* | Wind** | Luminosity | Snow |
|---|---|---|---|---|---|---|---|
| 1777988775 | 18.33° C | 68% | 1008 hPa | 0 mm | 0 m/s | - | - |
| 1777987875 | 17.78° C | 65% | 1008 hPa | 0 mm | 0 m/s | - | - |
| 1777986975 | 17.78° C | 68% | 1008 hPa | 0 mm | 0 m/s | - | - |
| 1777986075 | 17.22° C | 73% | 1008 hPa | 0 mm | 0 m/s | - | - |
| 1777985175 | 16.67° C | 72% | 1008 hPa | 0 mm | 0 m/s | - | - |
| 1777984275 | 16.67° C | 71% | 1008 hPa | 0 mm | 0 m/s | - | - |
| 1777983375 | 16.67° C | 72% | 1009 hPa | 0 mm | 0 m/s | - | - |
| 1777982475 | 16.67° C | 72% | 1009 hPa | 0 mm | 0 m/s | - | - |
| 1777981575 | 16.11° C | 73% | 1009 hPa | 0 mm | 0 m/s | - | - |
| 1777980675 | 16.11° C | 75% | 1009 hPa | 0 mm | 0 m/s | - | - |
| 1777979775 | 16.11° C | 73% | 1009 hPa | 0 mm | 0 m/s | - | - |
| 1777978875 | 16.11° C | 72% | 1009 hPa | 0 mm | 0 m/s | - | - |
| 1777977975 | 16.11° C | 69% | 1009 hPa | 0 mm | 0 m/s | - | - |
| 1777977075 | 16.67° C | 68% | 1009 hPa | 0 mm | 0 m/s | - | - |
| 1777976175 | 16.67° C | 66% | 1009 hPa | 0 mm | 0 m/s | - | - |
| 1777975275 | 16.67° C | 65% | 1009 hPa | 0 mm | 0 m/s | - | - |
| 1777974375 | 17.22° C | 64% | 1009 hPa | 0 mm | 0 m/s | - | - |
| 1777973475 | 17.78° C | 61% | 1009 hPa | 0 mm | 0 m/s | - | - |
| 1777972575 | 17.78° C | 65% | 1009 hPa | 0 mm | 0 m/s | - | - |
| 1777971675 | 17.22° C | 69% | 1009 hPa | 0 mm | 0 m/s | - | - |
| 1777970775 | 16.67° C | 77% | 1010 hPa | 0 mm | 0 m/s | - | - |
| 1777969875 | 16.11° C | 85% | 1010 hPa | 0 mm | 0 m/s | - | - |
| 1777968975 | 15° C | 87% | 1010 hPa | 0 mm | 0 m/s | - | - |
| 1777968075 | 14.44° C | 87% | 1010 hPa | 0 mm | 0 m/s | - | - |
| 1777967175 | 13.89° C | 87% | 1010 hPa | 0 mm | 0 m/s | - | - |
* Rain latest 24 hours (hover to see other rain measurements)
** Current wind speed in m/s (hover to see current wind gust speed)